Time,TemperatureF,DewpointF,PressureIn,WindDirection,WindDirectionDegrees,WindSpeedMPH,WindSpeedGustMPH,Humidity,HourlyPrecipIn,Conditions,Clouds,dailyrainin,SoftwareType,DateUTC
2013-03-19 00:00:00,40.3,39.3,29.66,ENE,71,0.0,0.0,96,0.00,,,0.68,Wunderground v.1.15,2013-03-19 04:00:00,
2013-03-19 00:05:00,40.6,39.5,29.66,ENE,71,0.0,0.0,96,0.00,,,0.00,Wunderground v.1.15,2013-03-19 04:05:00,
2013-03-19 00:10:00,40.9,39.8,29.66,ENE,71,0.0,0.0,96,0.00,,,0.00,Wunderground v.1.15,2013-03-19 04:10:00,
2013-03-19 00:15:00,41.2,40.1,29.66,ENE,71,0.0,0.0,96,0.00,,,0.00,Wunderground v.1.15,2013-03-19 04:15:00,
2013-03-19 00:20:00,41.3,40.2,29.66,ENE,71,0.0,0.0,96,0.00,,,0.00,Wunderground v.1.15,2013-03-19 04:20:00,
2013-03-19 00:25:00,41.5,40.4,29.66,ENE,71,0.0,0.0,96,0.00,,,0.00,Wunderground v.1.15,2013-03-19 04:25:00,
2013-03-19 00:30:00,41.8,40.7,29.65,ENE,71,0.0,0.0,96,0.00,,,0.00,Wunderground v.1.15,2013-03-19 04:30:00,
2013-03-19 00:40:00,42.6,41.5,29.66,ENE,71,0.0,0.0,96,0.00,,,0.00,Wunderground v.1.15,2013-03-19 04:40:00,
2013-03-19 00:50:00,42.6,41.5,29.66,ENE,71,0.0,0.0,96,0.00,,,0.00,Wunderground v.1.15,2013-03-19 04:50:00,
2013-03-19 01:00:00,42.3,41.2,29.66,ENE,71,0.0,0.0,96,0.00,,,0.00,Wunderground v.1.15,2013-03-19 05:00:00,
2013-03-19 01:05:00,42.2,41.1,29.66,ENE,71,0.0,0.0,96,0.00,,,0.00,Wunderground v.1.15,2013-03-19 05:05:00,
2013-03-19 01:10:00,42.1,41.0,29.66,ENE,71,0.0,0.0,96,0.00,,,0.00,Wunderground v.1.15,2013-03-19 05:10:00,
2013-03-19 01:20:00,42.1,41.0,29.66,ENE,71,0.0,0.0,96,0.00,,,0.00,Wunderground v.1.15,2013-03-19 05:20:00,
2013-03-19 01:30:00,42.2,41.1,29.66,NE,55,0.0,0.0,96,0.00,,,0.00,Wunderground v.1.15,2013-03-19 05:30:00,
2013-03-19 01:40:00,42.1,41.0,29.66,NE,55,0.0,0.0,96,0.00,,,0.00,Wunderground v.1.15,2013-03-19 05:40:00,
2013-03-19 01:50:00,42.5,41.7,29.65,NE,55,0.0,0.0,97,0.00,,,0.00,Wunderground v.1.15,2013-03-19 05:50:00,
2013-03-19 02:00:00,42.5,41.4,29.65,NE,55,0.0,0.0,96,0.00,,,0.00,Wunderground v.1.15,2013-03-19 06:00:00,
2013-03-19 02:05:00,42.5,41.7,29.65,NE,55,0.0,1.0,97,0.00,,,0.00,Wunderground v.1.15,2013-03-19 06:05:00,
2013-03-19 02:10:00,42.5,41.4,29.65,NE,55,0.0,0.0,96,0.00,,,0.00,Wunderground v.1.15,2013-03-19 06:10:00,
2013-03-19 02:20:00,42.3,41.2,29.65,NE,55,0.0,0.0,96,0.00,,,0.00,Wunderground v.1.15,2013-03-19 06:20:00,
2013-03-19 02:30:00,42.3,41.5,29.65,NE,55,0.0,0.0,97,0.00,,,0.00,Wunderground v.1.15,2013-03-19 06:30:00,
2013-03-19 02:40:00,42.6,41.8,29.65,NE,55,0.0,0.0,97,0.00,,,0.00,Wunderground v.1.15,2013-03-19 06:40:00,
2013-03-19 02:50:00,42.5,41.7,29.65,NE,55,0.0,0.0,97,0.00,,,0.00,Wunderground v.1.15,2013-03-19 06:50:00,
2013-03-19 02:55:00,42.3,41.5,29.65,NE,55,0.0,2.0,97,0.00,,,0.00,Wunderground v.1.15,2013-03-19 06:55:00,
2013-03-19 03:00:00,42.3,41.5,29.65,NE,55,0.0,0.0,97,0.00,,,0.00,Wunderground v.1.15,2013-03-19 07:00:00,
2013-03-19 03:10:00,42.2,41.4,29.65,NNE,31,0.0,0.0,97,0.00,,,0.00,Wunderground v.1.15,2013-03-19 07:10:00,
2013-03-19 03:20:00,42.1,41.0,29.65,SSW,204,0.0,0.0,96,0.00,,,0.01,Wunderground v.1.15,2013-03-19 07:20:00,
2013-03-19 03:30:00,42.3,41.5,29.65,SSW,204,0.0,0.0,97,0.00,,,0.01,Wunderground v.1.15,2013-03-19 07:30:00,
2013-03-19 03:40:00,42.6,41.8,29.65,NNW,342,0.0,0.0,97,0.00,,,0.01,Wunderground v.1.15,2013-03-19 07:40:00,
2013-03-19 03:50:00,42.9,42.1,29.64,NNW,342,0.0,0.0,97,0.00,,,0.01,Wunderground v.1.15,2013-03-19 07:50:00,
2013-03-19 03:55:00,42.8,42.0,29.64,NNW,342,0.0,0.0,97,0.00,,,0.01,Wunderground v.1.15,2013-03-19 07:55:00,
2013-03-19 04:00:00,42.8,42.0,29.64,NNW,342,0.0,0.0,97,0.00,,,0.01,Wunderground v.1.15,2013-03-19 08:00:00,
2013-03-19 04:10:00,42.9,42.1,29.64,NNW,341,0.0,0.0,97,0.00,,,0.01,Wunderground v.1.15,2013-03-19 08:10:00,
2013-03-19 04:20:00,43.5,43.0,29.63,NNW,341,0.0,0.0,98,0.00,,,0.01,Wunderground v.1.15,2013-03-19 08:20:00,
2013-03-19 04:30:00,43.5,43.0,29.63,NNW,341,0.0,0.0,98,0.00,,,0.01,Wunderground v.1.15,2013-03-19 08:30:00,
2013-03-19 04:40:00,43.9,43.4,29.63,NNW,341,0.0,1.0,98,0.00,,,0.01,Wunderground v.1.15,2013-03-19 08:40:00,
2013-03-19 04:50:00,43.9,43.4,29.63,NNW,341,0.0,2.0,98,0.00,,,0.01,Wunderground v.1.15,2013-03-19 08:50:00,
2013-03-19 04:55:00,43.9,43.4,29.63,WNW,294,1.0,2.0,98,0.00,,,0.01,Wunderground v.1.15,2013-03-19 08:55:00,
2013-03-19 05:05:00,44.2,43.7,29.63,West,261,2.0,2.0,98,0.00,,,0.01,Wunderground v.1.15,2013-03-19 09:05:00,
2013-03-19 05:10:00,44.3,43.5,29.63,West,281,1.0,1.0,97,0.00,,,0.01,Wunderground v.1.15,2013-03-19 09:10:00,
2013-03-19 05:15:00,44.2,43.4,29.63,West,281,1.0,1.0,97,0.00,,,0.01,Wunderground v.1.15,2013-03-19 09:15:00,
2013-03-19 05:25:00,44.2,43.1,29.64,West,281,1.0,2.0,96,0.00,,,0.01,Wunderground v.1.15,2013-03-19 09:25:00,
2013-03-19 05:30:00,44.2,43.1,29.64,West,267,1.0,2.0,96,0.00,,,0.01,Wunderground v.1.15,2013-03-19 09:30:00,
2013-03-19 05:40:00,44.5,43.4,29.64,WSW,257,2.0,2.0,96,0.00,,,0.01,Wunderground v.1.15,2013-03-19 09:40:00,
2013-03-19 05:50:00,44.6,43.3,29.65,West,268,2.0,2.0,95,0.00,,,0.01,Wunderground v.1.15,2013-03-19 09:50:00,
2013-03-19 06:00:00,44.5,42.9,29.65,West,271,2.0,2.0,94,0.00,,,0.01,Wunderground v.1.15,2013-03-19 10:00:00,
2013-03-19 06:10:00,44.3,42.7,29.65,West,265,1.0,1.0,94,0.00,,,0.01,Wunderground v.1.15,2013-03-19 10:10:00,
2013-03-19 06:20:00,44.2,42.3,29.65,West,269,2.0,2.0,93,0.00,,,0.01,Wunderground v.1.15,2013-03-19 10:20:00,
2013-03-19 06:25:00,44.2,42.3,29.65,West,267,2.0,2.0,93,0.00,,,0.01,Wunderground v.1.15,2013-03-19 10:25:00,
2013-03-19 06:35:00,43.9,41.7,29.66,West,265,1.0,2.0,92,0.00,,,0.01,Wunderground v.1.15,2013-03-19 10:35:00,
2013-03-19 06:45:00,43.8,41.6,29.66,West,272,2.0,2.0,92,0.00,,,0.01,Wunderground v.1.15,2013-03-19 10:45:00,
2013-03-19 06:50:00,43.8,41.3,29.67,NNE,28,2.0,3.0,91,0.00,,,0.01,Wunderground v.1.15,2013-03-19 10:50:00,
2013-03-19 07:00:00,43.6,40.9,29.67,West,266,2.0,2.0,90,0.00,,,0.01,Wunderground v.1.15,2013-03-19 11:00:00,
2013-03-19 07:10:00,43.5,40.5,29.67,NW,323,2.0,2.0,89,0.00,,,0.01,Wunderground v.1.15,2013-03-19 11:10:00,
2013-03-19 07:20:00,43.2,39.9,29.68,West,261,1.0,3.0,88,0.00,,,0.01,Wunderground v.1.15,2013-03-19 11:20:00,
2013-03-19 07:30:00,42.9,39.3,29.69,WSW,250,1.0,1.0,87,0.00,,,0.01,Wunderground v.1.15,2013-03-19 11:30:00,
2013-03-19 07:40:00,42.6,39.0,29.70,WSW,256,1.0,1.0,87,0.00,,,0.01,Wunderground v.1.15,2013-03-19 11:40:00,
2013-03-19 07:50:00,42.5,39.2,29.70,WSW,256,1.0,1.0,88,0.00,,,0.01,Wunderground v.1.15,2013-03-19 11:50:00,
2013-03-19 08:00:00,41.9,38.6,29.72,WSW,255,1.0,1.0,88,0.00,,,0.01,Wunderground v.1.15,2013-03-19 12:00:00,
2013-03-19 08:05:00,41.5,38.2,29.72,WSW,246,1.0,2.0,88,0.00,,,0.01,Wunderground v.1.15,2013-03-19 12:05:00,
2013-03-19 08:10:00,40.9,37.6,29.72,WSW,246,0.0,4.0,88,0.00,,,0.01,Wunderground v.1.15,2013-03-19 12:10:00,
2013-03-19 08:20:00,40.1,36.8,29.73,WSW,246,0.0,0.0,88,0.00,,,0.01,Wunderground v.1.15,2013-03-19 12:20:00,
2013-03-19 08:30:00,39.5,36.5,29.74,WNW,292,0.0,0.0,89,0.00,,,0.01,Wunderground v.1.15,2013-03-19 12:30:00,
2013-03-19 08:40:00,39.3,36.3,29.75,WNW,293,1.0,1.0,89,0.00,,,0.01,Wunderground v.1.15,2013-03-19 12:40:00,
2013-03-19 08:50:00,39.2,35.9,29.75,West,265,1.0,1.0,88,0.00,,,0.01,Wunderground v.1.15,2013-03-19 12:50:00,
2013-03-19 08:55:00,39.2,35.7,29.74,NNW,330,1.0,1.0,87,0.00,,,0.01,Wunderground v.1.15,2013-03-19 12:55:00,
2013-03-19 09:05:00,38.9,35.1,29.75,NNE,27,1.0,2.0,86,0.00,,,0.01,Wunderground v.1.15,2013-03-19 13:05:00,
2013-03-19 09:10:00,38.8,34.7,29.75,WSW,258,1.0,1.0,85,0.00,,,0.01,Wunderground v.1.15,2013-03-19 13:10:00,
2013-03-19 09:20:00,38.8,34.1,29.76,WSW,242,1.0,3.0,83,0.00,,,0.01,Wunderground v.1.15,2013-03-19 13:20:00,
2013-03-19 09:30:00,38.8,32.8,29.76,West,260,1.0,1.0,79,0.00,,,0.01,Wunderground v.1.15,2013-03-19 13:30:00,
2013-03-19 09:40:00,39.2,31.9,29.75,NE,39,1.0,1.0,75,0.00,,,0.01,Wunderground v.1.15,2013-03-19 13:40:00,
2013-03-19 09:50:00,39.5,31.2,29.75,NW,313,1.0,1.0,72,0.00,,,0.01,Wunderground v.1.15,2013-03-19 13:50:00,
2013-03-19 09:55:00,39.8,31.5,29.75,West,259,1.0,1.0,72,0.00,,,0.01,Wunderground v.1.15,2013-03-19 13:55:00,
2013-03-19 10:05:00,40.5,31.1,29.74,West,259,0.0,1.0,69,0.00,,,0.01,Wunderground v.1.15,2013-03-19 14:05:00,
2013-03-19 10:10:00,40.6,30.9,29.74,North,360,2.0,2.0,68,0.00,,,0.01,Wunderground v.1.15,2013-03-19 14:10:00,
2013-03-19 10:20:00,41.3,30.0,29.74,ENE,70,1.0,1.0,64,0.00,,,0.01,Wunderground v.1.15,2013-03-19 14:20:00,
2013-03-19 10:30:00,41.9,27.8,29.75,East,91,1.0,1.0,57,0.00,,,0.01,Wunderground v.1.15,2013-03-19 14:30:00,
2013-03-19 10:40:00,42.5,29.2,29.75,East,89,0.0,0.0,59,0.00,,,0.01,Wunderground v.1.15,2013-03-19 14:40:00,
2013-03-19 10:50:00,43.1,27.1,29.75,East,89,0.0,0.0,53,0.00,,,0.01,Wunderground v.1.15,2013-03-19 14:50:00,
2013-03-19 10:55:00,43.3,27.3,29.75,East,89,1.0,1.0,53,0.00,,,0.01,Wunderground v.1.15,2013-03-19 14:55:00,
2013-03-19 11:05:00,44.3,30.0,29.75,WSW,240,1.0,1.0,57,0.00,,,0.01,Wunderground v.1.15,2013-03-19 15:05:00,
2013-03-19 11:10:00,44.9,28.8,29.74,WSW,250,1.0,2.0,53,0.00,,,0.01,Wunderground v.1.15,2013-03-19 15:10:00,
2013-03-19 11:20:00,45.8,29.2,29.75,WSW,250,0.0,1.0,52,0.00,,,0.01,Wunderground v.1.15,2013-03-19 15:20:00,
2013-03-19 11:30:00,46.5,26.3,29.75,WSW,250,1.0,1.0,45,0.00,,,0.01,Wunderground v.1.15,2013-03-19 15:30:00,
2013-03-19 11:40:00,47.3,27.0,29.75,West,259,1.0,1.0,45,0.00,,,0.01,Wunderground v.1.15,2013-03-19 15:40:00,
2013-03-19 11:50:00,48.0,26.5,29.75,West,261,1.0,2.0,43,0.00,,,0.01,Wunderground v.1.15,2013-03-19 15:50:00,
2013-03-19 12:00:00,49.1,30.2,29.74,West,275,1.0,1.0,48,0.00,,,0.01,Wunderground v.1.15,2013-03-19 16:00:00,
2013-03-19 12:10:00,50.1,28.4,29.73,West,273,1.0,1.0,43,0.00,,,0.01,Wunderground v.1.15,2013-03-19 16:10:00,
2013-03-19 12:20:00,50.2,29.1,29.73,NNE,20,2.0,2.0,44,0.00,,,0.01,Wunderground v.1.15,2013-03-19 16:20:00,
2013-03-19 12:30:00,50.8,20.4,29.74,West,273,2.0,3.0,30,0.00,,,0.01,Wunderground v.1.15,2013-03-19 16:30:00,
2013-03-19 12:40:00,51.7,21.2,29.74,West,271,1.0,3.0,30,0.00,,,0.01,Wunderground v.1.15,2013-03-19 16:40:00,
2013-03-19 12:50:00,52.8,23.7,29.74,West,271,1.0,3.0,32,0.00,,,0.01,Wunderground v.1.15,2013-03-19 16:50:00,
2013-03-19 12:55:00,53.3,21.0,29.74,WNW,289,1.0,3.0,28,0.00,,,0.01,Wunderground v.1.15,2013-03-19 16:55:00,
2013-03-19 13:05:00,52.3,15.5,29.73,SSW,200,2.0,2.0,23,0.00,,,0.01,Wunderground v.1.15,2013-03-19 17:05:00,
2013-03-19 13:10:00,52.9,23.0,29.73,SSW,200,1.0,1.0,31,0.00,,,0.01,Wunderground v.1.15,2013-03-19 17:10:00,
2013-03-19 13:15:00,53.6,20.4,29.73,West,263,1.0,1.0,27,0.00,,,0.01,Wunderground v.1.15,2013-03-19 17:15:00,
2013-03-19 13:20:00,54.1,19.9,29.73,West,271,1.0,3.0,26,0.00,,,0.01,Wunderground v.1.15,2013-03-19 17:20:00,
2013-03-19 13:30:00,53.8,17.8,29.73,West,267,2.0,4.0,24,0.00,,,0.01,Wunderground v.1.15,2013-03-19 17:30:00,
2013-03-19 13:40:00,54.1,19.9,29.73,West,264,2.0,2.0,26,0.00,,,0.01,Wunderground v.1.15,2013-03-19 17:40:00,
2013-03-19 13:50:00,54.8,17.7,29.72,West,269,2.0,2.0,23,0.00,,,0.01,Wunderground v.1.15,2013-03-19 17:50:00,
2013-03-19 14:00:00,55.7,21.3,29.72,NW,317,1.0,1.0,26,0.00,,,0.01,Wunderground v.1.15,2013-03-19 18:00:00,
2013-03-19 14:10:00,56.6,15.9,29.72,NNE,31,2.0,2.0,20,0.00,,,0.01,Wunderground v.1.15,2013-03-19 18:10:00,
2013-03-19 14:20:00,57.3,17.6,29.72,West,261,4.0,4.0,21,0.00,,,0.01,Wunderground v.1.15,2013-03-19 18:20:00,
2013-03-19 14:30:00,56.3,18.9,29.71,WSW,252,5.0,5.0,23,0.00,,,0.01,Wunderground v.1.15,2013-03-19 18:30:00,
2013-03-19 14:35:00,56.6,15.9,29.72,West,265,4.0,7.0,20,0.00,,,0.01,Wunderground v.1.15,2013-03-19 18:35:00,
2013-03-19 14:40:00,57.0,15.1,29.71,NW,309,3.0,5.0,19,0.00,,,0.01,Wunderground v.1.15,2013-03-19 18:40:00,
2013-03-19 14:50:00,56.5,15.8,29.72,North,360,5.0,5.0,20,0.00,,,0.01,Wunderground v.1.15,2013-03-19 18:50:00,
2013-03-19 15:00:00,55.3,12.4,29.72,West,277,6.0,6.0,18,0.00,,,0.01,Wunderground v.1.15,2013-03-19 19:00:00,
2013-03-19 15:10:00,56.5,13.4,29.70,NNE,22,3.0,3.0,18,0.00,,,0.01,Wunderground v.1.15,2013-03-19 19:10:00,
2013-03-19 15:20:00,57.2,14.0,29.70,NW,306,3.0,3.0,18,0.00,,,0.01,Wunderground v.1.15,2013-03-19 19:20:00,
2013-03-19 15:30:00,56.7,16.0,29.70,SSW,195,5.0,5.0,20,0.00,,,0.01,Wunderground v.1.15,2013-03-19 19:30:00,
2013-03-19 15:40:00,56.3,14.5,29.71,West,279,6.0,6.0,19,0.00,,,0.01,Wunderground v.1.15,2013-03-19 19:40:00,
2013-03-19 15:50:00,56.6,19.2,29.70,West,266,6.0,8.0,23,0.00,,,0.01,Wunderground v.1.15,2013-03-19 19:50:00,
2013-03-19 15:55:00,56.9,15.0,29.70,West,270,4.0,9.0,19,0.00,,,0.01,Wunderground v.1.15,2013-03-19 19:55:00,
2013-03-19 16:05:00,56.0,13.0,29.71,West,263,6.0,6.0,18,0.00,,,0.01,Wunderground v.1.15,2013-03-19 20:05:00,
2013-03-19 16:10:00,56.3,14.5,29.71,NE,49,5.0,5.0,19,0.00,,,0.01,Wunderground v.1.15,2013-03-19 20:10:00,
2013-03-19 16:20:00,57.0,15.1,29.71,West,269,3.0,3.0,19,0.00,,,0.01,Wunderground v.1.15,2013-03-19 20:20:00,
2013-03-19 16:30:00,56.2,14.4,29.72,SW,227,4.0,4.0,19,0.00,,,0.01,Wunderground v.1.15,2013-03-19 20:30:00,
2013-03-19 16:40:00,55.1,13.5,29.73,NE,37,5.0,5.0,19,0.00,,,0.01,Wunderground v.1.15,2013-03-19 20:40:00,
2013-03-19 16:45:00,55.1,13.5,29.73,West,271,5.0,5.0,19,0.00,,,0.01,Wunderground v.1.15,2013-03-19 20:45:00,
2013-03-19 16:55:00,56.0,16.6,29.72,West,259,3.0,8.0,21,0.00,,,0.01,Wunderground v.1.15,2013-03-19 20:55:00,
2013-03-19 17:05:00,55.7,18.4,29.72,NNW,335,3.0,5.0,23,0.00,,,0.01,Wunderground v.1.15,2013-03-19 21:05:00,
2013-03-19 17:15:00,54.8,13.3,29.73,West,279,5.0,7.0,19,0.00,,,0.01,Wunderground v.1.15,2013-03-19 21:15:00,
2013-03-19 17:20:00,54.8,15.6,29.73,WNW,297,5.0,5.0,21,0.00,,,0.01,Wunderground v.1.15,2013-03-19 21:20:00,
2013-03-19 17:30:00,55.7,15.2,29.73,West,271,2.0,5.0,20,0.00,,,0.01,Wunderground v.1.15,2013-03-19 21:30:00,
2013-03-19 17:40:00,54.8,12.0,29.73,WNW,282,2.0,5.0,18,0.00,,,0.01,Wunderground v.1.15,2013-03-19 21:40:00,
2013-03-19 17:45:00,54.5,13.0,29.73,NNW,334,3.0,5.0,19,0.00,,,0.01,Wunderground v.1.15,2013-03-19 21:45:00,
2013-03-19 17:55:00,54.2,12.8,29.73,West,269,3.0,5.0,19,0.00,,,0.01,Wunderground v.1.15,2013-03-19 21:55:00,
2013-03-19 18:05:00,53.5,12.2,29.74,West,268,4.0,7.0,19,0.00,,,0.01,Wunderground v.1.15,2013-03-19 22:05:00,
2013-03-19 18:10:00,53.1,11.9,29.74,West,260,4.0,5.0,19,0.00,,,0.01,Wunderground v.1.15,2013-03-19 22:10:00,
2013-03-19 18:15:00,52.9,10.5,29.75,NW,321,4.0,6.0,18,0.00,,,0.01,Wunderground v.1.15,2013-03-19 22:15:00,
2013-03-19 18:20:00,52.6,10.2,29.75,West,279,4.0,4.0,18,0.00,,,0.01,Wunderground v.1.15,2013-03-19 22:20:00,
2013-03-19 18:30:00,52.3,11.2,29.75,West,269,3.0,5.0,19,0.00,,,0.01,Wunderground v.1.15,2013-03-19 22:30:00,
2013-03-19 18:40:00,51.9,12.0,29.75,West,265,3.0,4.0,20,0.00,,,0.01,Wunderground v.1.15,2013-03-19 22:40:00,
2013-03-19 18:45:00,51.6,12.9,29.75,North,355,4.0,4.0,21,0.00,,,0.01,Wunderground v.1.15,2013-03-19 22:45:00,
2013-03-19 18:55:00,51.1,13.5,29.76,West,262,3.0,5.0,22,0.00,,,0.01,Wunderground v.1.15,2013-03-19 22:55:00,
2013-03-19 19:05:00,50.5,13.0,29.77,West,259,3.0,4.0,22,0.00,,,0.01,Wunderground v.1.15,2013-03-19 23:05:00,
2013-03-19 19:15:00,49.8,13.4,29.78,West,271,2.0,5.0,23,0.00,,,0.01,Wunderground v.1.15,2013-03-19 23:15:00,
2013-03-19 19:25:00,49.1,12.8,29.79,West,271,3.0,5.0,23,0.00,,,0.01,Wunderground v.1.15,2013-03-19 23:25:00,
2013-03-19 19:30:00,48.8,13.5,29.79,West,267,2.0,2.0,24,0.00,,,0.01,Wunderground v.1.15,2013-03-19 23:30:00,
2013-03-19 19:40:00,47.9,12.8,29.79,West,271,2.0,2.0,24,0.00,,,0.01,Wunderground v.1.15,2013-03-19 23:40:00,
2013-03-19 19:50:00,47.3,15.0,29.80,West,274,1.0,1.0,27,0.00,,,0.01,Wunderground v.1.15,2013-03-19 23:50:00,
2013-03-19 20:00:00,46.4,13.3,29.80,West,261,1.0,1.0,26,0.00,,,0.01,Wunderground v.1.15,2013-03-20 00:00:00,
2013-03-19 20:10:00,46.0,14.7,29.81,West,265,0.0,0.0,28,0.00,,,0.01,Wunderground v.1.15,2013-03-20 00:10:00,
2013-03-19 20:15:00,45.4,13.3,29.81,West,264,0.0,0.0,27,0.00,,,0.01,Wunderground v.1.15,2013-03-20 00:15:00,
2013-03-19 20:25:00,45.1,14.7,29.82,West,264,0.0,1.0,29,0.00,,,0.01,Wunderground v.1.15,2013-03-20 00:25:00,
2013-03-19 20:30:00,44.8,14.4,29.82,West,265,0.0,0.0,29,0.00,,,0.01,Wunderground v.1.15,2013-03-20 00:30:00,
2013-03-19 20:40:00,44.6,15.0,29.82,West,266,0.0,0.0,30,0.00,,,0.01,Wunderground v.1.15,2013-03-20 00:40:00,
2013-03-19 20:50:00,44.1,14.6,29.83,West,266,0.0,0.0,30,0.00,,,0.01,Wunderground v.1.15,2013-03-20 00:50:00,
2013-03-19 21:00:00,43.1,14.5,29.83,West,266,0.0,0.0,31,0.00,,,0.01,Wunderground v.1.15,2013-03-20 01:00:00,
2013-03-19 21:05:00,42.9,13.5,29.82,West,266,0.0,0.0,30,0.00,,,0.01,Wunderground v.1.15,2013-03-20 01:05:00,
2013-03-19 21:15:00,43.1,14.5,29.83,West,267,0.0,0.0,31,0.00,,,0.01,Wunderground v.1.15,2013-03-20 01:15:00,
2013-03-19 21:25:00,42.3,13.0,29.84,West,267,0.0,1.0,30,0.00,,,0.01,Wunderground v.1.15,2013-03-20 01:25:00,
2013-03-19 21:30:00,42.1,11.3,29.84,West,267,0.0,1.0,28,0.00,,,0.01,Wunderground v.1.15,2013-03-20 01:30:00,
2013-03-19 21:40:00,41.6,11.6,29.84,West,267,0.0,0.0,29,0.00,,,0.01,Wunderground v.1.15,2013-03-20 01:40:00,
2013-03-19 21:50:00,41.6,11.6,29.84,West,267,0.0,0.0,29,0.00,,,0.01,Wunderground v.1.15,2013-03-20 01:50:00,
2013-03-19 22:00:00,41.1,10.4,29.84,West,267,0.0,0.0,28,0.00,,,0.01,Wunderground v.1.15,2013-03-20 02:00:00,
2013-03-19 22:10:00,41.2,10.5,29.84,West,261,0.0,0.0,28,0.00,,,0.01,Wunderground v.1.15,2013-03-20 02:10:00,
2013-03-19 22:20:00,41.2,11.3,29.84,West,261,0.0,0.0,29,0.00,,,0.01,Wunderground v.1.15,2013-03-20 02:20:00,
2013-03-19 22:25:00,41.2,10.5,29.84,West,261,0.0,0.0,28,0.00,,,0.01,Wunderground v.1.15,2013-03-20 02:25:00,
2013-03-19 22:30:00,41.2,9.7,29.84,West,261,0.0,0.0,27,0.00,,,0.01,Wunderground v.1.15,2013-03-20 02:30:00,
2013-03-19 22:40:00,40.8,10.9,29.84,West,261,0.0,0.0,29,0.00,,,0.01,Wunderground v.1.15,2013-03-20 02:40:00,
2013-03-19 22:50:00,40.5,9.9,29.84,West,261,0.0,0.0,28,0.00,,,0.01,Wunderground v.1.15,2013-03-20 02:50:00,
2013-03-19 23:00:00,40.2,8.8,29.84,West,261,0.0,0.0,27,0.00,,,0.01,Wunderground v.1.15,2013-03-20 03:00:00,
2013-03-19 23:10:00,40.1,9.6,29.83,West,261,0.0,0.0,28,0.00,,,0.01,Wunderground v.1.15,2013-03-20 03:10:00,
2013-03-19 23:15:00,39.9,8.6,29.83,NNW,329,0.0,0.0,27,0.00,,,0.01,Wunderground v.1.15,2013-03-20 03:15:00,
2013-03-19 23:25:00,39.6,9.1,29.84,NNW,329,0.0,0.0,28,0.00,,,0.01,Wunderground v.1.15,2013-03-20 03:25:00,
2013-03-19 23:30:00,39.5,9.0,29.83,NNW,329,0.0,0.0,28,0.00,,,0.01,Wunderground v.1.15,2013-03-20 03:30:00,
2013-03-19 23:40:00,39.2,8.8,29.83,NNW,329,0.0,0.0,28,0.00,,,0.01,Wunderground v.1.15,2013-03-20 03:40:00,
2013-03-19 23:50:00,38.9,9.3,29.83,ESE,111,0.0,0.0,29,0.00,,,0.01,Wunderground v.1.15,2013-03-20 03:50:00,